Weather History for Galax, VA

Change the Weather History Date:

Sunday, January 12, 2014

  Actual Average (KBLF) Record (KBLF)
Temperature  
Mean Temperature 40 °F 34 °F  
Max Temperature 48 °F 42 °F 72 °F (2013)
Min Temperature 33 °F 26 °F 1 °F (1981)
Degree Days  
Heating Degree Days 24 31  
Month to date heating degree days 372  
Since 1 July heating degree days 2137  
Cooling Degree Days 0 0  
Month to date cooling degree days 0  
Year to date cooling degree days 0  
Moisture  
Dew Point 22 °F    
Average Humidity 51    
Maximum Humidity 75    
Minimum Humidity 32    
Precipitation  
Precipitation 0.00 in 0.09 in 0.88 in (1975)
Month to date precipitation 1.13  
Year to date precipitation 1.13  
Snow  
Snow 0.00 in - - ()
Month to date snowfall  
Since 1 July snowfall  
Snow Depth -    
Sea Level Pressure  
Sea Level Pressure 30.00 in    
Wind  
Wind Speed 14 mph (West)    
Max Wind Speed 26 mph    
Max Gust Speed 39 mph    
Visibility 10 miles    
Events      
T = Trace of Precipitation, MM = Missing Value Source: NWS Daily Summary

Daily Weather History Graph

Daily Weather History Graph

Search for Another Location

Airport:

Trip Planner

Search our weather history database for the weather conditions in past years. The results will help you decide how hot, cold, wet, or windy it might be!

Date:

Astronomy

Jan. 12, 2014 Rise Set
Actual Time 7:35 AM EST 5:27 PM EST
Civil Twilight 7:07 AM EST 5:56 PM EST
Nautical Twilight 6:35 AM EST 6:28 PM EST
Astronomical Twilight 6:04 AM EST 6:59 PM EST
Moon 2:54 PM EST (1/12) 4:33 AM EST (1/12)
Length of Visible Light 10h 48m
Length of Day
9h 52m
Waxing Gibbous, 89% of the Moon is Illuminated
Jan 12
Waxing Gibbous
Jan 15
Full
Jan 24
Last Quarter
Jan 30
New
Feb 6
First Quarter

Hourly Weather History & Observations

Time (EST) Temp. Windchill Dew Point Humidity Pressure Visibility Wind Dir Wind Speed Gust Speed Precip Events Conditions
12:15 AM 39.2 °F 28.5 °F 26.6 °F 61% 29.74 in 10.0 mi WNW 24.2 mph 36.8 mph N/A   Clear
12:35 AM 39.2 °F 30.2 °F 26.6 °F 61% 29.75 in 10.0 mi WNW 17.3 mph 25.3 mph N/A   Clear
12:55 AM 39.2 °F 29.6 °F 24.8 °F 56% 29.75 in 10.0 mi WNW 19.6 mph 32.2 mph N/A   Clear
1:15 AM 37.4 °F 27.2 °F 24.8 °F 60% 29.76 in 10.0 mi WNW 19.6 mph 32.2 mph N/A   Clear
1:35 AM 37.4 °F 26.6 °F 24.8 °F 60% 29.75 in 10.0 mi WNW 21.9 mph 32.2 mph N/A   Clear
1:55 AM 37.4 °F 27.8 °F 23.0 °F 56% 29.77 in 10.0 mi WNW 17.3 mph 34.5 mph N/A   Clear
2:15 AM 37.4 °F 25.6 °F 23.0 °F 56% 29.78 in 10.0 mi WNW 26.5 mph 39.1 mph N/A   Clear
2:35 AM 35.6 °F 24.8 °F 23.0 °F 60% 29.80 in 10.0 mi WNW 19.6 mph 28.8 mph N/A   Clear
2:55 AM 35.6 °F 26.6 °F 23.0 °F 60% 29.81 in 10.0 mi WNW 13.8 mph 32.2 mph N/A   Clear
3:15 AM 35.6 °F 26.6 °F 21.2 °F 56% 29.81 in 10.0 mi WNW 13.8 mph 21.9 mph N/A   Clear
3:35 AM 35.6 °F 23.4 °F 21.2 °F 56% 29.82 in 10.0 mi WNW 25.3 mph 32.2 mph N/A   Clear
3:55 AM 35.6 °F 25.2 °F 23.0 °F 60% 29.83 in 10.0 mi WNW 18.4 mph 34.5 mph N/A   Clear
4:15 AM 35.6 °F 25.9 °F 23.0 °F 60% 29.84 in 10.0 mi West 16.1 mph 31.1 mph N/A   Clear
4:35 AM 33.8 °F 22.5 °F 21.2 °F 60% 29.85 in 10.0 mi WNW 19.6 mph 27.6 mph N/A   Scattered Clouds
4:55 AM 35.6 °F 24.8 °F 21.2 °F 56% 29.86 in 10.0 mi WNW 19.6 mph 29.9 mph N/A   Mostly Cloudy
5:15 AM 35.6 °F 28.0 °F 23.0 °F 60% 29.87 in 10.0 mi WNW 10.4 mph 25.3 mph N/A   Overcast
5:35 AM 35.6 °F 25.9 °F 23.0 °F 60% 29.88 in 10.0 mi WNW 16.1 mph 24.2 mph N/A   Mostly Cloudy
5:55 AM 33.8 °F 23.9 °F 24.8 °F 70% 29.90 in 10.0 mi West 15.0 mph 20.7 mph N/A   Scattered Clouds
6:15 AM 33.8 °F 24.8 °F 24.8 °F 70% 29.90 in 10.0 mi WNW 12.7 mph 25.3 mph N/A   Scattered Clouds
6:35 AM 33.8 °F 23.9 °F 24.8 °F 70% 29.90 in 10.0 mi WNW 15.0 mph 21.9 mph N/A   Clear
6:55 AM 33.8 °F 25.8 °F 24.8 °F 70% 29.91 in 10.0 mi WNW 10.4 mph 16.1 mph N/A   Clear
7:15 AM 33.8 °F 29.6 °F 26.6 °F 75% 29.92 in 10.0 mi West 4.6 mph - N/A   Clear
7:35 AM 33.8 °F 27.7 °F 26.6 °F 75% 29.93 in 10.0 mi West 6.9 mph - N/A   Clear
7:55 AM 33.8 °F 27.0 °F 26.6 °F 75% 29.94 in 10.0 mi WNW 8.1 mph - N/A   Clear
8:15 AM 33.8 °F 25.8 °F 26.6 °F 75% 29.95 in 10.0 mi WNW 10.4 mph 16.1 mph N/A   Clear
8:35 AM 35.6 °F 27.5 °F 26.6 °F 70% 29.97 in 10.0 mi WNW 11.5 mph 16.1 mph N/A   Clear
8:55 AM 35.6 °F 27.5 °F 26.6 °F 70% 29.97 in 10.0 mi WNW 11.5 mph 23.0 mph N/A   Clear
9:15 AM 35.6 °F 27.5 °F 26.6 °F 70% 29.98 in 10.0 mi West 11.5 mph 19.6 mph N/A   Clear
9:35 AM 35.6 °F 28.6 °F 26.6 °F 70% 30.01 in 10.0 mi West 9.2 mph - N/A   Clear
9:55 AM 37.4 °F 29.8 °F 26.6 °F 65% 30.02 in 10.0 mi West 11.5 mph 25.3 mph N/A   Scattered Clouds
10:15 AM 37.4 °F 29.3 °F 26.6 °F 65% 30.04 in 10.0 mi West 12.7 mph 18.4 mph N/A   Scattered Clouds
10:35 AM 39.2 °F 33.0 °F 26.6 °F 61% 30.04 in 10.0 mi West 9.2 mph 23.0 mph N/A   Scattered Clouds
10:55 AM 39.2 °F 32.5 °F 26.6 °F 61% 30.05 in 10.0 mi West 10.4 mph 20.7 mph N/A   Clear
11:15 AM 39.2 °F 31.2 °F 26.6 °F 61% 30.05 in 10.0 mi West 13.8 mph 21.9 mph N/A   Clear
11:35 AM 41.0 °F 32.8 °F 26.6 °F 57% 30.05 in 10.0 mi West 16.1 mph 20.7 mph N/A   Clear
11:55 AM 41.0 °F 33.9 °F 24.8 °F 53% 30.05 in 10.0 mi West 12.7 mph 18.4 mph N/A   Clear
12:15 PM 42.8 °F 35.4 °F 24.8 °F 49% 30.05 in 10.0 mi West 15.0 mph 20.7 mph N/A   Clear
12:35 PM 44.6 °F 37.8 °F 23.0 °F 43% 30.05 in 10.0 mi West 15.0 mph 20.7 mph N/A   Clear
12:55 PM 44.6 °F 39.2 °F 23.0 °F 43% 30.05 in 10.0 mi WNW 10.4 mph 16.1 mph N/A   Clear
1:15 PM 44.6 °F 38.8 °F 21.2 °F 39% 30.05 in 10.0 mi WNW 11.5 mph 16.1 mph N/A   Clear
1:35 PM 46.4 °F 42.4 °F 21.2 °F 37% 30.05 in 10.0 mi West 8.1 mph - N/A   Clear
1:55 PM 46.4 °F 41.5 °F 19.4 °F 34% 30.05 in 10.0 mi West 10.4 mph 17.3 mph N/A   Clear
2:15 PM 46.4 °F 40.4 °F 19.4 °F 34% 30.05 in 10.0 mi WNW 13.8 mph 17.3 mph N/A   Clear
2:35 PM 46.4 °F 42.9 °F 19.4 °F 34% 30.05 in 10.0 mi West 6.9 mph 16.1 mph N/A   Clear
2:55 PM 46.4 °F 42.4 °F 21.2 °F 37% 30.06 in 10.0 mi West 8.1 mph - N/A   Clear
3:15 PM 46.4 °F 42.4 °F 19.4 °F 34% 30.06 in 10.0 mi WSW 8.1 mph - N/A   Clear
3:35 PM 48.2 °F - 19.4 °F 32% 30.07 in 10.0 mi West 6.9 mph - N/A   Clear
3:55 PM 48.2 °F - 19.4 °F 32% 30.08 in 10.0 mi WSW 9.2 mph - N/A   Clear
4:15 PM 46.4 °F 42.4 °F 17.6 °F 32% 30.09 in 10.0 mi West 8.1 mph - N/A   Clear
4:35 PM 46.4 °F 43.5 °F 17.6 °F 32% 30.10 in 10.0 mi WSW 5.8 mph - N/A   Clear
4:55 PM 46.4 °F 44.3 °F 19.4 °F 34% 30.10 in 10.0 mi WNW 4.6 mph - N/A   Clear
5:15 PM 46.4 °F - 19.4 °F 34% 30.10 in 10.0 mi Calm Calm - N/A   Clear
5:35 PM 44.6 °F 43.1 °F 19.4 °F 37% 30.10 in 10.0 mi WNW 3.5 mph - N/A   Clear
5:55 PM 44.6 °F - 19.4 °F 37% 30.12 in 10.0 mi Calm Calm - N/A   Clear
6:15 PM 44.6 °F - 21.2 °F 39% 30.12 in 10.0 mi Calm Calm - N/A   Clear
6:35 PM 42.8 °F - 21.2 °F 42% 30.12 in 10.0 mi Calm Calm - N/A   Clear
6:55 PM 42.8 °F - 21.2 °F 42% 30.13 in 10.0 mi Calm Calm - N/A   Clear
7:15 PM 42.8 °F - 21.2 °F 42% 30.13 in 10.0 mi Calm Calm - N/A   Clear
7:35 PM 41.0 °F 39.0 °F 21.2 °F 45% 30.12 in 10.0 mi SSE 3.5 mph - N/A   Clear
7:55 PM 41.0 °F 37.1 °F 19.4 °F 42% 30.13 in 10.0 mi SSW 5.8 mph - N/A   Clear
8:15 PM 41.0 °F 35.8 °F 17.6 °F 39% 30.13 in 10.0 mi SSW 8.1 mph - N/A   Clear
8:35 PM 42.8 °F 38.6 °F 17.6 °F 36% 30.13 in 10.0 mi SSW 6.9 mph - N/A   Clear
8:55 PM 41.0 °F 35.8 °F 15.8 °F 36% 30.13 in 10.0 mi South 8.1 mph - N/A   Clear
9:15 PM 39.2 °F 33.6 °F 17.6 °F 42% 30.13 in 10.0 mi South 8.1 mph - N/A   Clear
9:35 PM 39.2 °F 37.0 °F 15.8 °F 39% 30.12 in 10.0 mi South 3.5 mph - N/A   Clear
9:55 PM 39.2 °F 35.0 °F 15.8 °F 39% 30.13 in 10.0 mi South 5.8 mph - N/A   Clear
10:15 PM 39.2 °F 35.0 °F 15.8 °F 39% 30.12 in 10.0 mi South 5.8 mph - N/A   Clear
10:35 PM 39.2 °F 34.2 °F 15.8 °F 39% 30.12 in 10.0 mi South 6.9 mph - N/A   Clear
10:55 PM 39.2 °F 34.2 °F 17.6 °F 42% 30.12 in 10.0 mi South 6.9 mph - N/A   Clear
11:15 PM 39.2 °F 33.0 °F 21.2 °F 49% 30.12 in 10.0 mi SSW 9.2 mph - N/A   Clear
11:35 PM 39.2 °F 33.0 °F 21.2 °F 49% 30.12 in 10.0 mi SSW 9.2 mph - N/A   Clear
11:55 PM 39.2 °F 33.0 °F 21.2 °F 49% 30.11 in 10.0 mi SSW 9.2 mph - N/A   Clear